QPF
0.03 0.08 0.07 0.05 0.02 0.10 0.13 0.06 0.03 0.02 0.02 0.00 0.00 0.00 0.00 0.00 0.00 0.00 0.00 0.00 0.00 0.00 0.00 0.02 0.00 0.01 0.05 0.00 0.00 0.00 0.00 0.00 0.00 0.00 0.00 0.01 0.02 0.00 0.00 0.00 0.00 0.00 0.00
0.02 0.06 0.05 0.01 0.00 0.04 0.06 0.06 0.09 0.02 0.02 0.00 0.00 0.00 0.00 0.00 0.00 0.00 0.00 0.00 0.00 0.01 0.00 0.03 0.02 0.03 0.17 0.10 0.05 0.01 0.00 0.00 0.01 0.02 0.00 0.01 0.03 0.03 0.01 0.01 0.01 0.00 0.01
0.03 0.07 0.04 0.05 0.09 0.08 0.12 0.17 0.13 0.14 0.04 0.00 0.00 0.00 0.00 0.00 0.00 0.00 0.00 0.00 0.00 0.01 0.00 0.00 0.00 0.01 0.04 0.10 0.13 0.13 0.09 0.09 0.09 0.08 0.06 0.03 0.01 0.01 0.01 0.01 0.02 0.03 0.01
0.09 0.14 0.08 0.02 0.02 0.02 0.07 0.14 0.11 0.11 0.12 0.15 0.14 0.05 0.00 0.00 0.00 0.00 0.00 0.00 0.00 0.00 0.00 0.00 0.00 0.02 0.02 0.08 0.17 0.14 0.10 0.04 0.03 0.04 0.05 0.05 0.05 0.04 0.02 0.01 0.01 0.01 0.03
0.11 0.10 0.04 0.04 0.07 0.05 0.15 0.10 0.07 0.08 0.07 0.10 0.10 0.09 0.02 0.00 0.00 0.00 0.00 0.00 0.00 0.00 0.00 0.01 0.02 0.02 0.01 0.03 0.13 0.15 0.14 0.04 0.00 0.00 0.00 0.01 0.02 0.03 0.04 0.03 0.01 0.02 0.06
0.14 0.16 0.11 0.07 0.03 0.09 0.13 0.12 0.12 0.11 0.03 0.02 0.01 0.00 0.01 0.00 0.00 0.00 0.00 0.00 0.00 0.00 0.00 0.00 0.02 0.01 0.02 0.09 0.14 0.09 0.08 0.06 0.02 0.05 0.00 0.01 0.00 0.01 0.11 0.14 0.06 0.04 0.05
0.19 0.15 0.17 0.14 0.09 0.10 0.05 0.05 0.02 0.03 0.03 0.04 0.05 0.02 0.01 0.00 0.00 0.00 0.00 0.00 0.00 0.00 0.00 0.00 0.03 0.00 0.04 0.02 0.01 0.03 0.08 0.07 0.14 0.15 0.04 0.00 0.00 0.03 0.09 0.08 0.08 0.05 0.04
0.12 0.08 0.12 0.09 0.07 0.06 0.03 0.01 0.03 0.08 0.08 0.09 0.08 0.08 0.05 0.03 0.00 0.00 0.00 0.00 0.00 0.00 0.00 0.00 0.02 0.05 0.04 0.00 0.01 0.02 0.02 0.04 0.07 0.04 0.02 0.00 0.05 0.21 0.10 0.01 0.00 0.01 0.02
0.05 0.03 0.02 0.01 0.02 0.01 0.00 0.04 0.07 0.08 0.06 0.08 0.06 0.05 0.07 0.11 0.12 0.03 0.01 0.03 0.05 0.01 0.00 0.02 0.16 0.18 0.21 0.15 0.08 0.05 0.01 0.02 0.05 0.05 0.02 0.01 0.07 0.13 0.09 0.02 0.02 0.04 0.07
0.00 0.00 0.00 0.00 0.00 0.01 0.03 0.05 0.09 0.09 0.10 0.07 0.11 0.06 0.03 0.10 0.22 0.28 0.18 0.18 0.09 0.03 0.01 0.06 0.16 0.24 0.33 0.33 0.21 0.26 0.23 0.16 0.02 0.01 0.00 0.03 0.01 0.01 0.02 0.02 0.02 0.07 0.08
0.00 0.00 0.00 0.00 0.01 0.07 0.08 0.07 0.10 0.08 0.10 0.12 0.13 0.10 0.08 0.03 0.05 0.20 0.28 0.20 0.05 0.01 0.00 0.01 0.08 0.12 0.28 0.25 0.15 0.28 0.10 0.04 0.07 0.07 0.02 0.00 0.00 0.00 0.00 0.00 0.00 0.01 0.01
0.00 0.00 0.00 0.00 0.00 0.07 0.14 0.16 0.12 0.12 0.10 0.09 0.08 0.02 0.05 0.11 0.09 0.11 0.25 0.28 0.16 0.01 0.00 0.02 0.01 0.09 0.07 0.09 0.13 0.10 0.03 0.04 0.02 0.01 0.00 0.00 0.00 0.00 0.00 0.00 0.00 0.01 0.04
0.00 0.00 0.01 0.01 0.01 0.06 0.14 0.13 0.08 0.05 0.10 0.20 0.15 0.08 0.05 0.08 0.12 0.19 0.26 0.23 0.07 0.04 0.01 0.00 0.02 0.03 0.02 0.04 0.01 0.01 0.00 0.00 0.00 0.00 0.00 0.00 0.00 0.00 0.00 0.00 0.00 0.00 0.01
0.00 0.00 0.01 0.01 0.01 0.02 0.02 0.01 0.00 0.00 0.01 0.10 0.19 0.24 0.17 0.15 0.15 0.21 0.29 0.18 0.06 0.07 0.04 0.00 0.00 0.00 0.00 0.00 0.00 0.00 0.00 0.00 0.00 0.00 0.00 0.00 0.00 0.00 0.00 0.00 0.00 0.00 0.00
0.00 0.00 0.00 0.00 0.00 0.00 0.00 0.00 0.00 0.01 0.01 0.02 0.05 0.09 0.20 0.28 0.28 0.35 0.17 0.12 0.07 0.05 0.03 0.01 0.00 0.00 0.00 0.00 0.00 0.00 0.00 0.00 0.00 0.00 0.00 0.00 0.00 0.00 0.00 0.00 0.00 0.00 0.00
0.00 0.00 0.00 0.00 0.00 0.00 0.00 0.00 0.00 0.00 0.00 0.01 0.02 0.03 0.06 0.11 0.13 0.17 0.18 0.13 0.13 0.11 0.05 0.00 0.00 0.00 0.00 0.00 0.00 0.00 0.00 0.00 0.00 0.00 0.00 0.00 0.00 0.00 0.00 0.00 0.00 0.00 0.00
0.00 0.00 0.00 0.00 0.00 0.00 0.00 0.00 0.00 0.00 0.00 0.00 0.00 0.00 0.00 0.04 0.07 0.08 0.12 0.16 0.19 0.18 0.04 0.00 0.00 0.00 0.00 0.00 0.00 0.00 0.00 0.00 0.00 0.00 0.00 0.00 0.00 0.00 0.00 0.00 0.00 0.00 0.00
0.00 0.00 0.00 0.00 0.00 0.00 0.00 0.00 0.00 0.00 0.00 0.00 0.00 0.00 0.00 0.00 0.00 0.02 0.02 0.04 0.14 0.17 0.01 0.00 0.00 0.00 0.00 0.00 0.00 0.00 0.00 0.00 0.00 0.00 0.00 0.00 0.00 0.00 0.00 0.00 0.00 0.00 0.00
0.00 0.00 0.00 0.00 0.00 0.00 0.00 0.00 0.00 0.00 0.00 0.00 0.00 0.00 0.00 0.00 0.00 0.00 0.00 0.00 0.00 0.02 0.00 0.00 0.00 0.00 0.00 0.00 0.00 0.00 0.00 0.00 0.00 0.00 0.00 0.00 0.00 0.00 0.00 0.00 0.00 0.00 0.00
0.00 0.00 0.00 0.00 0.00 0.00 0.00 0.00 0.00 0.00 0.00 0.00 0.00 0.00 0.00 0.00 0.00 0.00 0.00 0.01 0.01 0.00 0.00 0.00 0.00 0.00 0.00 0.00 0.00 0.00 0.00 0.00 0.00 0.00 0.00 0.00 0.00 0.00 0.00 0.00 0.00 0.00 0.00
0.00 0.00 0.00 0.00 0.00 0.00 0.00 0.00 0.00 0.00 0.00 0.00 0.00 0.00 0.00 0.00 0.00 0.00 0.00 0.00 0.01 0.00 0.00 0.00 0.00 0.00 0.00 0.00 0.00 0.00 0.00 0.00 0.00 0.00 0.00 0.00 0.00 0.00 0.00 0.00 0.00 0.00 0.00
0.00 0.00 0.00 0.00 0.00 0.00 0.00 0.00 0.00 0.00 0.00 0.00 0.00 0.00 0.00 0.00 0.00 0.00 0.00 0.00 0.00 0.01 0.01 0.00 0.00 0.00 0.01 0.00 0.00 0.00 0.00 0.00 0.01 0.00 0.00 0.00 0.00 0.00 0.00 0.00 0.00 0.00 0.00
0.00 0.00 0.00 0.00 0.00 0.00 0.00 0.00 0.00 0.00 0.00 0.00 0.00 0.00 0.00 0.00 0.00 0.00 0.00 0.00 0.00 0.00 0.00 0.00 0.00 0.01 0.01 0.01 0.01 0.01 0.01 0.02 0.01 0.00 0.01 0.01 0.00 0.00 0.00 0.00 0.00 0.00 0.00
0.00 0.00 0.00 0.00 0.00 0.00 0.00 0.00 0.00 0.00 0.00 0.00 0.00 0.00 0.00 0.00 0.00 0.00 0.00 0.00 0.00 0.00 0.00 0.00 0.00 0.00 0.00 0.00 0.00 0.00 0.01 0.00 0.00 0.00 0.00 0.01 0.00 0.00 0.00 0.00 0.00 0.00 0.00
0.00 0.00 0.00 0.00 0.00 0.00 0.00 0.00 0.00 0.00 0.00 0.00 0.00 0.00 0.00 0.00 0.00 0.00 0.00 0.00 0.00 0.00 0.00 0.00 0.00 0.00 0.00 0.00 0.00 0.00 0.00 0.00 0.01 0.01 0.00 0.01 0.00 0.00 0.00 0.00 0.00 0.00 0.00
0.01 0.00 0.00 0.00 0.00 0.00 0.00 0.00 0.00 0.00 0.00 0.00 0.00 0.00 0.00 0.00 0.00 0.00 0.00 0.00 0.00 0.00 0.00 0.00 0.00 0.00 0.00 0.00 0.00 0.00 0.00 0.00 0.00 0.01 0.02 0.00 0.01 0.00 0.00 0.00 0.00 0.00 0.00
MSLP
1016.78 1017.11 1017.30 1017.31 1016.99 1016.22 1016.59 1016.62 1015.65 1015.28 1015.48 1015.84 1015.84 1016.04 1016.31 1016.32 1016.03 1016.15 1016.65 1016.87 1017.27 1017.83 1018.30 1018.51 1018.73 1018.97 1019.20 1019.43 1019.72 1019.91 1020.11 1020.27 1020.50 1020.68 1020.78 1020.84 1020.96 1021.04 1021.14 1021.21 1021.31 1021.38 1021.47
1016.75 1017.04 1017.14 1016.92 1016.55 1015.93 1015.82 1015.94 1015.96 1015.77 1015.71 1015.69 1015.82 1015.67 1015.78 1015.76 1015.95 1015.99 1015.72 1016.70 1016.85 1017.27 1017.78 1018.16 1018.33 1018.50 1018.79 1019.10 1019.38 1019.65 1019.90 1020.08 1020.21 1020.39 1020.59 1020.62 1020.69 1020.86 1020.93 1020.97 1021.03 1021.12 1021.18
1016.41 1016.75 1016.73 1015.83 1015.62 1015.51 1015.14 1015.85 1016.12 1016.17 1016.03 1015.52 1015.77 1015.71 1016.01 1015.84 1015.67 1016.05 1016.25 1016.26 1016.61 1016.89 1017.05 1017.45 1017.82 1018.02 1018.28 1018.59 1018.93 1019.34 1019.67 1019.87 1019.99 1020.23 1020.33 1020.35 1020.39 1020.43 1020.54 1020.68 1020.73 1020.84 1020.89
1016.33 1016.36 1016.38 1015.47 1014.29 1013.99 1014.56 1015.62 1016.05 1015.89 1016.15 1016.06 1015.99 1015.76 1015.50 1015.59 1015.73 1015.84 1015.73 1015.63 1015.98 1016.31 1016.59 1016.77 1017.02 1017.39 1017.73 1018.12 1018.47 1018.97 1019.36 1019.66 1019.81 1019.95 1020.01 1019.95 1020.03 1020.09 1020.14 1020.21 1020.31 1020.47 1020.61
1015.57 1015.69 1015.71 1014.79 1014.95 1014.74 1015.08 1015.39 1015.34 1015.17 1015.58 1015.85 1015.87 1015.93 1015.63 1015.27 1015.38 1015.34 1015.25 1015.17 1015.52 1015.73 1015.82 1016.18 1016.47 1016.75 1016.97 1017.35 1017.90 1018.39 1018.97 1019.29 1019.43 1019.53 1019.53 1019.45 1019.41 1019.57 1019.61 1019.75 1019.87 1020.05 1020.22
1015.29 1015.26 1015.19 1014.78 1014.88 1014.74 1015.07 1015.11 1015.40 1015.56 1015.30 1015.24 1015.03 1014.41 1015.06 1015.14 1015.05 1014.93 1014.72 1014.58 1015.07 1015.43 1015.12 1015.08 1015.73 1015.79 1016.05 1016.32 1016.94 1017.53 1018.08 1018.55 1018.82 1019.10 1019.02 1018.80 1018.98 1019.16 1019.31 1019.43 1019.44 1019.55 1019.64
1014.82 1014.76 1014.85 1014.88 1014.72 1014.93 1014.89 1015.06 1015.13 1014.93 1014.77 1014.79 1014.94 1014.61 1014.43 1014.55 1014.42 1014.38 1014.23 1014.00 1013.88 1014.38 1014.31 1014.21 1014.51 1014.76 1015.13 1015.57 1016.21 1016.84 1017.36 1017.73 1018.06 1018.29 1018.34 1018.36 1018.52 1018.76 1018.88 1019.01 1019.07 1019.09 1019.13
1014.65 1014.42 1014.64 1014.72 1014.59 1014.94 1014.76 1014.72 1014.78 1014.93 1015.27 1015.33 1015.31 1015.19 1014.58 1013.61 1013.91 1013.83 1013.90 1013.55 1013.53 1013.32 1013.40 1013.81 1014.67 1015.41 1015.69 1015.96 1015.97 1016.22 1016.63 1017.16 1017.51 1017.75 1017.79 1017.77 1018.01 1018.24 1018.49 1018.64 1018.63 1018.69 1018.75
1014.41 1014.34 1014.23 1014.30 1014.53 1014.66 1014.05 1014.28 1014.71 1014.97 1014.91 1014.84 1015.13 1015.01 1014.33 1013.71 1013.42 1013.32 1013.61 1013.79 1013.84 1013.69 1013.39 1014.28 1014.87 1013.56 1015.42 1015.50 1015.80 1016.08 1016.49 1016.85 1017.26 1017.46 1017.42 1017.36 1017.42 1017.76 1017.97 1018.08 1018.11 1018.27 1018.31
1014.39 1014.33 1014.37 1014.33 1014.45 1014.44 1014.42 1014.23 1014.67 1014.79 1014.85 1014.59 1014.84 1014.79 1014.36 1014.40 1014.07 1013.90 1013.84 1014.14 1015.05 1014.77 1014.75 1014.73 1015.19 1014.69 1015.36 1015.97 1016.63 1016.96 1017.14 1017.30 1017.35 1017.57 1017.55 1017.41 1017.28 1017.61 1017.82 1017.77 1017.86 1017.87 1017.68
1014.71 1014.70 1014.61 1014.60 1014.80 1014.89 1014.80 1014.65 1014.55 1014.59 1014.81 1014.89 1014.73 1014.63 1014.55 1014.27 1014.13 1014.42 1014.50 1015.18 1015.73 1016.19 1015.85 1015.45 1015.80 1016.01 1016.23 1016.50 1016.96 1017.66 1017.75 1017.97 1017.97 1018.02 1018.00 1017.83 1017.74 1017.80 1017.79 1017.77 1017.68 1017.52 1017.45
1014.98 1014.94 1015.08 1014.97 1015.02 1014.81 1014.70 1014.71 1014.59 1014.49 1014.47 1014.44 1014.43 1014.06 1014.05 1014.25 1013.85 1014.11 1014.54 1015.22 1015.74 1016.82 1016.83 1016.65 1016.49 1016.65 1016.80 1017.21 1017.82 1018.13 1018.35 1018.40 1018.39 1018.36 1018.27 1018.12 1017.98 1017.93 1017.89 1017.78 1017.64 1017.46 1017.28
1015.30 1015.25 1015.17 1014.99 1014.81 1014.79 1014.69 1014.69 1014.57 1014.48 1014.38 1014.40 1014.22 1014.15 1014.05 1014.10 1014.07 1014.19 1014.44 1015.11 1015.66 1016.89 1017.45 1017.78 1017.71 1017.66 1017.81 1017.98 1018.10 1018.57 1018.90 1018.89 1018.85 1018.79 1018.70 1018.60 1018.55 1018.46 1018.29 1018.13 1017.94 1017.75 1017.53
1015.28 1015.59 1015.33 1015.10 1014.93 1014.69 1014.59 1014.76 1014.97 1014.78 1014.55 1014.32 1014.17 1014.13 1014.13 1013.85 1013.89 1014.10 1014.08 1014.53 1015.76 1016.59 1017.45 1018.19 1018.59 1018.65 1018.69 1018.79 1018.74 1018.68 1019.19 1019.40 1019.33 1019.29 1019.15 1019.05 1019.07 1019.06 1018.93 1018.75 1018.56 1018.40 1018.19
1015.52 1015.89 1015.77 1015.59 1015.49 1015.31 1015.21 1014.90 1014.86 1014.88 1014.60 1014.55 1014.63 1014.30 1014.30 1014.16 1014.02 1014.03 1014.34 1014.56 1014.84 1015.91 1017.25 1017.79 1018.93 1019.23 1019.24 1019.25 1019.15 1019.33 1019.74 1019.88 1019.81 1019.79 1019.62 1019.59 1019.64 1019.57 1019.41 1019.31 1019.21 1019.03 1018.86
1015.92 1016.07 1016.10 1015.95 1015.77 1015.63 1015.37 1015.09 1015.06 1015.59 1015.34 1014.93 1014.87 1014.74 1014.59 1014.49 1014.44 1014.39 1014.39 1014.56 1014.93 1015.38 1016.76 1018.26 1019.17 1019.55 1019.68 1019.80 1019.67 1019.96 1020.08 1020.27 1020.27 1020.19 1020.19 1020.12 1020.08 1020.00 1019.99 1019.80 1019.61 1019.47 1019.34
1016.09 1016.12 1016.03 1015.90 1015.68 1015.61 1015.71 1015.62 1015.75 1015.94 1016.02 1015.91 1015.68 1015.39 1015.07 1014.89 1014.80 1014.76 1014.82 1014.83 1014.94 1015.31 1016.84 1018.85 1019.53 1020.03 1020.23 1020.37 1020.34 1020.38 1020.39 1020.39 1020.67 1020.71 1020.61 1020.62 1020.63 1020.55 1020.39 1020.25 1020.08 1019.95 1019.80
1016.32 1016.31 1016.15 1015.99 1015.89 1015.86 1015.85 1015.79 1015.85 1016.18 1016.62 1016.59 1016.30 1016.01 1015.74 1015.57 1015.49 1015.53 1015.28 1015.35 1015.51 1015.59 1016.51 1018.51 1019.81 1020.35 1020.70 1020.82 1020.89 1020.85 1020.95 1021.04 1021.01 1021.26 1021.12 1021.00 1020.97 1020.93 1020.88 1020.87 1020.80 1020.57 1020.37
1016.35 1016.56 1016.43 1016.25 1016.29 1016.35 1016.31 1016.33 1016.30 1016.51 1016.87 1016.99 1016.76 1016.42 1016.45 1016.29 1016.27 1016.25 1016.09 1016.09 1016.32 1016.57 1017.05 1018.41 1019.83 1020.61 1021.08 1021.35 1021.47 1021.60 1021.57 1021.49 1021.38 1021.47 1021.44 1021.41 1021.33 1021.38 1021.43 1021.41 1021.30 1021.12 1020.98
1016.45 1016.59 1016.70 1016.72 1016.74 1016.74 1016.79 1016.86 1016.90 1016.91 1016.81 1017.03 1017.21 1017.23 1017.25 1017.12 1016.94 1016.61 1016.62 1016.65 1017.14 1017.75 1018.25 1019.08 1020.03 1020.67 1021.09 1021.47 1021.49 1021.46 1021.44 1021.43 1021.49 1021.34 1021.58 1021.33 1021.50 1021.55 1021.47 1021.53 1021.43 1021.48 1021.44
1016.63 1016.77 1016.84 1017.02 1017.00 1017.05 1017.47 1017.49 1017.38 1017.42 1017.44 1017.34 1017.52 1017.81 1018.13 1018.09 1017.82 1017.45 1017.01 1017.27 1017.33 1018.11 1018.95 1019.57 1020.18 1020.66 1021.07 1021.27 1021.11 1021.13 1021.11 1021.01 1021.46 1021.59 1021.39 1021.23 1021.03 1020.99 1021.20 1021.54 1021.77 1021.88 1021.83
1016.93 1017.03 1017.02 1017.12 1017.31 1017.80 1018.51 1018.27 1018.02 1018.09 1018.07 1018.00 1018.03 1018.19 1018.55 1018.51 1018.68 1018.61 1018.37 1018.19 1017.96 1017.98 1018.44 1019.08 1019.58 1019.90 1020.19 1020.31 1020.42 1020.24 1020.25 1020.41 1020.57 1020.43 1020.67 1020.52 1020.32 1020.45 1020.53 1021.35 1022.21 1022.25 1022.27
1017.08 1017.28 1017.28 1017.43 1018.08 1018.85 1019.01 1018.87 1018.71 1018.58 1018.55 1018.50 1018.51 1018.49 1018.38 1018.75 1018.68 1019.01 1019.21 1019.12 1019.05 1019.06 1019.09 1019.19 1019.49 1019.66 1019.83 1019.94 1019.90 1019.82 1019.77 1019.67 1019.74 1020.01 1020.21 1020.06 1019.84 1020.17 1020.48 1021.85 1022.25 1022.55 1022.61
1017.32 1017.52 1017.59 1017.82 1018.41 1019.51 1019.68 1019.41 1019.19 1019.01 1019.10 1019.03 1019.11 1019.46 1019.74 1019.75 1019.91 1019.61 1019.88 1020.13 1020.23 1020.19 1019.93 1019.71 1020.07 1020.29 1020.26 1019.99 1019.69 1019.47 1019.45 1019.52 1019.66 1019.73 1019.67 1019.57 1019.77 1019.92 1020.48 1021.36 1021.94 1022.15 1022.52
1017.25 1017.66 1017.61 1018.07 1018.61 1019.46 1019.91 1019.86 1019.84 1019.04 1019.23 1019.41 1019.85 1020.41 1020.33 1020.49 1020.55 1020.24 1020.13 1020.41 1020.73 1020.77 1020.99 1020.95 1021.03 1021.07 1020.96 1020.72 1020.36 1019.21 1018.97 1018.75 1018.17 1018.83 1019.22 1019.23 1019.67 1019.73 1020.14 1020.78 1021.41 1021.67 1021.78
1016.98 1017.32 1017.59 1017.97 1018.63 1019.35 1019.95 1019.94 1019.74 1019.00 1019.49 1019.65 1020.01 1020.77 1021.18 1021.32 1021.18 1020.95 1020.25 1020.22 1020.43 1020.35 1020.05 1020.59 1020.91 1020.89 1020.41 1020.51 1020.25 1020.01 1019.52 1018.84 1018.33 1018.45 1019.78 1019.41 1019.07 1019.04 1019.11 1019.47 1020.03 1021.29 1021.59
Thickness
5742 5741 5742 5742 5744 5752 5750 5747 5760 5766 5764 5762 5763 5763 5763 5764 5767 5767 5766 5765 5762 5758 5755 5753 5751 5750 5748 5747 5744 5743 5741 5739 5738 5736 5735 5734 5733 5732 5731 5731 5730 5729 5729
5741 5740 5740 5744 5748 5754 5755 5756 5757 5759 5761 5761 5762 5764 5764 5765 5765 5766 5767 5762 5762 5760 5756 5753 5751 5749 5748 5745 5743 5741 5739 5738 5737 5735 5733 5732 5732 5730 5730 5730 5730 5729 5729
5742 5740 5742 5752 5749 5757 5762 5755 5753 5753 5756 5760 5760 5762 5760 5762 5764 5763 5761 5762 5760 5759 5758 5754 5751 5749 5748 5745 5742 5738 5736 5736 5734 5732 5731 5731 5730 5729 5727 5728 5728 5728 5728
5740 5742 5744 5755 5766 5771 5764 5755 5753 5755 5753 5754 5755 5758 5761 5761 5761 5761 5761 5762 5761 5758 5757 5755 5753 5750 5747 5743 5740 5736 5733 5732 5732 5731 5730 5730 5729 5728 5726 5727 5728 5727 5726
5746 5745 5748 5757 5757 5760 5758 5757 5758 5760 5754 5752 5753 5753 5757 5760 5760 5759 5761 5761 5759 5758 5758 5756 5752 5750 5747 5744 5740 5737 5732 5729 5730 5729 5730 5730 5731 5729 5728 5728 5728 5728 5727
5748 5748 5750 5755 5756 5758 5756 5757 5754 5754 5756 5755 5757 5762 5758 5758 5758 5759 5761 5761 5760 5757 5758 5760 5754 5752 5750 5748 5743 5738 5735 5731 5730 5727 5728 5730 5728 5727 5727 5727 5727 5726 5727
5749 5751 5752 5753 5755 5755 5756 5755 5754 5755 5755 5758 5752 5754 5758 5759 5760 5760 5760 5763 5765 5762 5762 5763 5761 5757 5755 5751 5745 5741 5736 5733 5731 5728 5729 5729 5726 5725 5725 5725 5725 5725 5725
5748 5754 5753 5753 5756 5753 5755 5755 5754 5751 5748 5750 5743 5742 5740 5755 5758 5761 5760 5763 5763 5765 5766 5763 5749 5740 5740 5739 5743 5741 5739 5735 5731 5730 5729 5728 5727 5725 5722 5721 5723 5724 5724
5749 5753 5755 5756 5755 5755 5759 5757 5754 5750 5746 5750 5747 5742 5737 5741 5751 5761 5757 5756 5756 5758 5763 5752 5747 5736 5737 5742 5740 5738 5736 5733 5730 5729 5729 5729 5727 5725 5724 5723 5722 5722 5721
5747 5750 5751 5753 5753 5755 5754 5757 5754 5751 5748 5745 5745 5746 5748 5745 5737 5736 5749 5748 5743 5745 5748 5748 5739 5740 5738 5733 5730 5728 5726 5725 5726 5724 5724 5725 5727 5723 5722 5722 5720 5720 5720
5743 5745 5748 5749 5748 5748 5750 5751 5751 5750 5747 5743 5741 5741 5740 5744 5745 5734 5728 5730 5732 5730 5735 5740 5735 5731 5730 5726 5720 5715 5717 5717 5717 5718 5717 5719 5720 5719 5718 5718 5718 5718 5717
5740 5741 5741 5743 5743 5747 5748 5748 5749 5750 5748 5747 5745 5746 5743 5737 5740 5738 5732 5726 5723 5719 5722 5724 5726 5724 5721 5718 5713 5710 5710 5711 5711 5712 5712 5713 5713 5713 5712 5713 5713 5713 5714
5735 5739 5740 5741 5744 5744 5746 5747 5748 5748 5747 5745 5745 5744 5745 5741 5742 5739 5734 5725 5722 5717 5713 5712 5713 5711 5710 5709 5709 5705 5703 5703 5705 5705 5706 5706 5705 5705 5705 5706 5706 5707 5708
5735 5734 5737 5739 5742 5743 5745 5745 5743 5745 5746 5746 5745 5745 5744 5746 5745 5740 5737 5728 5717 5714 5711 5705 5703 5702 5701 5701 5700 5700 5696 5697 5698 5698 5699 5699 5697 5696 5696 5697 5697 5697 5698
5734 5731 5732 5735 5736 5738 5740 5743 5743 5742 5745 5744 5742 5745 5743 5744 5744 5742 5737 5733 5727 5713 5707 5702 5697 5693 5694 5692 5692 5691 5689 5689 5691 5690 5691 5690 5689 5688 5688 5687 5687 5687 5687
5730 5729 5729 5731 5734 5736 5739 5741 5741 5736 5738 5742 5742 5742 5742 5743 5742 5742 5740 5737 5733 5726 5712 5703 5695 5691 5689 5685 5683 5683 5682 5682 5683 5683 5682 5683 5681 5681 5679 5679 5679 5678 5678
5727 5726 5729 5732 5735 5736 5735 5735 5734 5734 5732 5732 5735 5736 5738 5741 5739 5739 5737 5735 5732 5729 5710 5695 5692 5687 5685 5682 5680 5678 5678 5678 5676 5676 5676 5675 5673 5672 5672 5671 5670 5669 5669
5724 5724 5727 5730 5732 5733 5733 5733 5732 5730 5726 5725 5729 5731 5732 5734 5732 5731 5732 5728 5726 5725 5715 5696 5687 5683 5679 5677 5675 5674 5672 5670 5668 5667 5667 5667 5665 5663 5661 5659 5658 5658 5657
5723 5721 5724 5726 5726 5726 5727 5728 5728 5726 5723 5722 5724 5726 5725 5726 5724 5723 5722 5720 5718 5716 5710 5697 5684 5678 5673 5670 5667 5665 5664 5663 5662 5659 5658 5656 5655 5653 5650 5648 5646 5645 5644
5720 5719 5719 5719 5720 5720 5721 5721 5720 5720 5722 5720 5719 5718 5717 5717 5716 5717 5716 5714 5709 5701 5696 5688 5680 5674 5670 5665 5663 5661 5659 5658 5656 5654 5651 5649 5646 5643 5641 5638 5636 5633 5631
5716 5715 5714 5713 5715 5716 5713 5712 5714 5714 5713 5714 5713 5710 5706 5705 5706 5708 5712 5707 5705 5695 5685 5679 5673 5669 5664 5661 5660 5659 5656 5655 5650 5646 5644 5642 5640 5637 5633 5629 5624 5621 5618
5711 5710 5710 5710 5709 5707 5699 5702 5705 5704 5704 5704 5703 5703 5700 5700 5696 5695 5696 5696 5697 5695 5689 5681 5676 5672 5667 5665 5660 5659 5656 5651 5645 5644 5639 5636 5635 5631 5627 5618 5610 5606 5603
5707 5705 5706 5705 5699 5695 5693 5695 5696 5697 5695 5696 5696 5696 5697 5694 5694 5689 5684 5684 5683 5682 5680 5677 5670 5667 5663 5659 5657 5653 5651 5648 5643 5638 5632 5629 5627 5622 5617 5603 5599 5593 5589
5701 5700 5701 5701 5696 5686 5684 5688 5689 5690 5688 5688 5688 5684 5681 5680 5677 5680 5675 5670 5667 5667 5668 5665 5660 5656 5652 5651 5649 5648 5644 5640 5636 5630 5626 5620 5618 5613 5606 5596 5588 5584 5578
5699 5697 5699 5696 5691 5685 5679 5680 5679 5688 5685 5682 5678 5673 5675 5672 5668 5670 5670 5663 5657 5654 5652 5649 5646 5642 5639 5637 5635 5641 5638 5635 5636 5627 5619 5613 5607 5602 5597 5591 5579 5575 5572
5700 5699 5697 5696 5689 5684 5676 5676 5678 5685 5678 5676 5673 5668 5661 5660 5658 5659 5664 5660 5654 5651 5651 5642 5637 5634 5633 5629 5626 5623 5624 5622 5623 5618 5604 5603 5602 5598 5592 5588 5582 5568 5561